Grass Valley, CA

3:16 AM PDT on August 17, 2017 (GMT -0700)
Grass Valley

Weather History for KGOO - February, 2013

Change the Weather History Date:

Friday, February 15, 2013

  Actual Average (KAUN) Record (KAUN)
Temperature  
Mean Temperature 55 °F -  
Max Temperature 64 °F 57 °F 73 °F (1977)
Min Temperature 46 °F 39 °F 26 °F (1990)
Degree Days  
Heating Degree Days 10    
Growing Degree Days 5 (Base 50)    
Moisture  
Dew Point 23 °F    
Average Humidity 30    
Maximum Humidity 62    
Minimum Humidity 19    
Precipitation  
Precipitation 0.00 in - - ()
Sea Level Pressure  
Sea Level Pressure 30.29 in    
Wind  
Wind Speed 2 mph (West)    
Max Wind Speed 8 mph    
Max Gust Speed -    
Visibility 10 miles    
Events      
Averages and records for this station are not official NWS values.
T = Trace of Precipitation, MM = Missing Value Source: NWS Daily Summary

Daily Weather History Graph

Daily Weather History Graph

Search for Another Location

Airport or City:

Trip Planner

Search our weather history database for the weather conditions in past years. The results will help you decide how hot, cold, wet, or windy it might be!

Date:

Astronomy

Feb. 15, 2013 Rise Set
Actual Time 6:55 AM PST 5:41 PM PST
Civil Twilight 6:27 AM PST 6:08 PM PST
Nautical Twilight 5:56 AM PST 6:40 PM PST
Astronomical Twilight 5:25 AM PST 7:11 PM PST
Moon 9:37 AM PST (2/15) 11:44 PM PST (2/15)
Length of Visible Light 11h 41m
Length of Day
10h 46m
Waxing Crescent, 31% of the Moon is Illuminated
Feb 15
Waxing Crescent
Feb 17
First Quarter
Feb 25
Full
Mar 4
Last Quarter
Mar 11
New

Hourly Weather History & Observations

Time (PST) Temp. Dew Point Humidity Pressure Visibility Wind Dir Wind Speed Gust Speed Precip Events Conditions
12:15 AM 55.4 °F 15.8 °F 21% 30.26 in 10.0 mi East 6.9 mph - N/A   Clear
12:35 AM 55.4 °F 15.8 °F 21% 30.26 in 10.0 mi East 6.9 mph - N/A   Clear
12:55 AM 55.4 °F 15.8 °F 21% 30.26 in 10.0 mi East 8.1 mph - N/A   Clear
1:15 AM 51.8 °F 15.8 °F 24% 30.27 in 10.0 mi Calm Calm - N/A   Clear
1:35 AM 50.0 °F 17.6 °F 28% 30.27 in 10.0 mi Calm Calm - N/A   Clear
1:55 AM 53.6 °F 15.8 °F 22% 30.27 in 10.0 mi ESE 4.6 mph - N/A   Clear
2:15 AM 50.0 °F 17.6 °F 28% 30.27 in 10.0 mi Calm Calm - N/A   Clear
2:35 AM 50.0 °F 17.6 °F 28% 30.27 in 10.0 mi Calm Calm - N/A   Clear
2:55 AM 50.0 °F 17.6 °F 28% 30.27 in 10.0 mi Calm Calm - N/A   Clear
3:15 AM 48.2 °F 17.6 °F 30% 30.27 in 10.0 mi Calm Calm - N/A   Clear
3:35 AM 50.0 °F 15.8 °F 26% 30.27 in 10.0 mi Calm Calm - N/A   Clear
3:55 AM 46.4 °F 19.4 °F 34% 30.27 in 10.0 mi Calm Calm - N/A   Clear
4:15 AM 46.4 °F 17.6 °F 32% 30.27 in 10.0 mi Calm Calm - N/A   Clear
4:35 AM 48.2 °F 17.6 °F 30% 30.27 in 10.0 mi Calm Calm - N/A   Clear
4:55 AM 50.0 °F 15.8 °F 26% 30.28 in 10.0 mi Calm Calm - N/A   Clear
5:15 AM 48.2 °F 15.8 °F 27% 30.28 in 10.0 mi Calm Calm - N/A   Clear
5:35 AM 50.0 °F 15.8 °F 26% 30.28 in 10.0 mi Calm Calm - N/A   Clear
5:55 AM 50.0 °F 15.8 °F 26% 30.28 in 10.0 mi Calm Calm - N/A   Clear
6:15 AM 48.2 °F 17.6 °F 30% 30.28 in 10.0 mi Calm Calm - N/A   Clear
6:35 AM 48.2 °F 17.6 °F 30% 30.27 in 10.0 mi Calm Calm - N/A   Clear
6:55 AM 48.2 °F 17.6 °F 30% 30.28 in 10.0 mi Calm Calm - N/A   Clear
7:15 AM 48.2 °F 17.6 °F 30% 30.28 in 10.0 mi Calm Calm - N/A   Clear
7:35 AM 50.0 °F 17.6 °F 28% 30.28 in 10.0 mi Calm Calm - N/A   Clear
7:55 AM 53.6 °F 17.6 °F 24% 30.29 in 10.0 mi Calm Calm - N/A   Clear
8:15 AM 53.6 °F 23.0 °F 30% 30.29 in 10.0 mi Calm Calm - N/A   Clear
8:35 AM 55.4 °F 19.4 °F 25% 30.30 in 10.0 mi Calm Calm - N/A   Clear
8:55 AM 57.2 °F 15.8 °F 20% 30.30 in 10.0 mi Calm Calm - N/A   Clear
9:15 AM 57.2 °F 15.8 °F 20% 30.30 in 10.0 mi Calm Calm - N/A   Clear
9:35 AM 57.2 °F 17.6 °F 21% 30.30 in 10.0 mi Calm Calm - N/A   Clear
9:55 AM 57.2 °F 19.4 °F 23% 30.30 in 10.0 mi Calm Calm - N/A   Clear
10:15 AM 59.0 °F 15.8 °F 19% 30.30 in 10.0 mi WNW 4.6 mph - N/A   Clear
10:35 AM 59.0 °F 19.4 °F 22% 30.31 in 10.0 mi Calm Calm - N/A   Clear
10:55 AM 60.8 °F 19.4 °F 20% 30.31 in 10.0 mi Calm Calm - N/A   Clear
11:15 AM 60.8 °F 19.4 °F 20% 30.32 in 10.0 mi Calm Calm - N/A   Clear
11:35 AM 60.8 °F 21.2 °F 22% 30.31 in 10.0 mi West 3.5 mph - N/A   Clear
11:55 AM 60.8 °F 23.0 °F 23% 30.31 in 10.0 mi West 5.8 mph - N/A   Clear
12:15 PM 60.8 °F 23.0 °F 23% 30.30 in 10.0 mi West 6.9 mph - N/A   Clear
12:35 PM 62.6 °F 24.8 °F 24% 30.30 in 10.0 mi Calm Calm - N/A   Clear
12:55 PM 62.6 °F 23.0 °F 22% 30.30 in 10.0 mi West 3.5 mph - N/A   Clear
1:15 PM 62.6 °F 23.0 °F 22% 30.29 in 10.0 mi Calm Calm - N/A   Clear
1:35 PM 62.6 °F 24.8 °F 24% 30.29 in 10.0 mi WNW 8.1 mph - N/A   Clear
1:55 PM 62.6 °F 24.8 °F 24% 30.29 in 10.0 mi Calm Calm - N/A   Clear
2:15 PM 62.6 °F 26.6 °F 26% 30.28 in 10.0 mi WNW 6.9 mph - N/A   Clear
2:35 PM 62.6 °F 28.4 °F 27% 30.28 in 10.0 mi NW 3.5 mph - N/A   Clear
3:15 PM 64.4 °F 30.2 °F 28% 30.28 in 10.0 mi West 4.6 mph - N/A   Clear
3:35 PM 64.4 °F 32.0 °F 30% 30.28 in 10.0 mi West 5.8 mph - N/A   Clear
3:55 PM 62.6 °F 32.0 °F 32% 30.28 in 10.0 mi WSW 3.5 mph - N/A   Clear
7:15 PM 53.6 °F 37.4 °F 54% 30.30 in 10.0 mi Calm Calm - N/A   Clear
7:35 PM 53.6 °F 37.4 °F 54% 30.30 in 10.0 mi Calm Calm - N/A   Clear
7:55 PM 50.0 °F 37.4 °F 62% 30.30 in 10.0 mi Calm Calm - N/A   Clear
8:15 PM 51.8 °F 37.4 °F 58% 30.30 in 10.0 mi Calm Calm - N/A   Clear
8:35 PM 51.8 °F 35.6 °F 54% 30.30 in 10.0 mi Calm Calm - N/A   Clear
8:55 PM 50.0 °F 35.6 °F 58% 30.30 in 10.0 mi Calm Calm - N/A   Clear
9:15 PM 51.8 °F 32.0 °F 47% 30.30 in 10.0 mi Calm Calm - N/A   Clear
9:35 PM 51.8 °F 32.0 °F 47% 30.30 in 10.0 mi Calm Calm - N/A   Clear
9:55 PM 53.6 °F 32.0 °F 44% 30.30 in 10.0 mi Calm Calm - N/A   Clear
10:15 PM 53.6 °F 32.0 °F 44% 30.30 in 10.0 mi Calm Calm - N/A   Clear
10:55 PM 53.6 °F 30.2 °F 41% 30.30 in 10.0 mi Calm Calm - N/A   Clear
11:15 PM 55.4 °F 24.8 °F 31% 30.30 in 10.0 mi Calm Calm - N/A   Clear
11:35 PM 55.4 °F 24.8 °F 31% 30.30 in 10.0 mi Calm Calm - N/A   Clear
11:55 PM 53.6 °F 26.6 °F 35% 30.30 in 10.0 mi East 3.5 mph - N/A   Clear